Weather History for Noatak, AK

Change the Weather History Date:

Tuesday, November 13, 2012

  Actual Average Record
Temperature  
Mean Temperature -4 °F -  
Max Temperature 6 °F 14 °F 39 °F (2014)
Min Temperature -13 °F 2 °F -16 °F (2001)
Degree Days  
Heating Degree Days 68    
Moisture  
Dew Point -8 °F    
Average Humidity 84    
Maximum Humidity 100    
Minimum Humidity 53    
Precipitation  
Precipitation 0.00 in - - ()
Sea Level Pressure  
Sea Level Pressure 30.20 in    
Wind  
Wind Speed 3 mph (NNE)    
Max Wind Speed 14 mph    
Max Gust Speed 31 mph    
Visibility 10 miles    
Events      
Averages and records for this station are not official NWS values.
T = Trace of Precipitation, MM = Missing Value Source: NWS Daily Summary

Daily Weather History Graph

Daily Weather History Graph

Search for Another Location

Airport:

Trip Planner

Search our weather history database for the weather conditions in past years. The results will help you decide how hot, cold, wet, or windy it might be!

Date:

Astronomy

Nov. 13, 2012 Rise Set
Actual Time 10:53 AM AKST 4:18 PM AKST
Civil Twilight 9:38 AM AKST 5:33 PM AKST
Nautical Twilight 8:27 AM AKST 6:43 PM AKST
Astronomical Twilight 7:23 AM AKST 7:48 PM AKST
Moon 11:07 AM AKST (11/13) 3:55 PM AKST (11/13)
Length of Visible Light 7h 54m
Length of Day
5h 25m
Waning Crescent, 0% of the Moon is Illuminated
Nov 13
Waning Crescent
Nov 13
New
Nov 20
First Quarter
Nov 28
Full
Dec 6
Last Quarter

Hourly Weather History & Observations

Time (AKST) Temp. Windchill Dew Point Humidity Pressure Visibility Wind Dir Wind Speed Gust Speed Precip Events Conditions
12:16 AM -9.4 °F - -14.8 °F 77% 30.35 in 10.0 mi Calm Calm - N/A   Clear
12:36 AM -11.2 °F - -13.0 °F 92% 30.36 in 10.0 mi Calm Calm - N/A   Clear
12:56 AM -7.6 °F -18.8 °F -13.0 °F 77% 30.36 in 10.0 mi NE 4.6 mph - N/A   Clear
1:16 AM -5.8 °F -22.4 °F -7.6 °F 92% 30.35 in 10.0 mi North 9.2 mph 17.3 mph N/A   Clear
1:36 AM -7.6 °F -20.6 °F -11.2 °F 84% 30.36 in 10.0 mi NNE 5.8 mph - N/A   Clear
1:56 AM -11.2 °F -20.6 °F -16.6 °F 77% 30.38 in 10.0 mi East 3.5 mph - N/A   Clear
2:16 AM -11.2 °F - -16.6 °F 77% 30.38 in 10.0 mi Calm Calm - N/A   Clear
2:36 AM -11.2 °F - -14.8 °F 84% 30.37 in 10.0 mi Calm Calm - N/A   Clear
3:16 AM -13.0 °F -25.1 °F -18.4 °F 77% 30.36 in 10.0 mi NNE 4.6 mph - N/A   Clear
3:36 AM -13.0 °F - -14.8 °F 92% 30.36 in 10.0 mi Calm Calm - N/A   Clear
3:56 AM -11.2 °F - -16.6 °F 77% 30.34 in 10.0 mi Calm Calm - N/A   Clear
4:16 AM -11.2 °F - -11.2 °F 100% 30.33 in 10.0 mi Calm Calm - N/A   Clear
4:36 AM -11.2 °F -27.8 °F -18.4 °F 70% 30.32 in 10.0 mi NNW 8.1 mph - N/A   Clear
4:56 AM -5.8 °F -14.5 °F -7.6 °F 92% 30.31 in 10.0 mi NNE 3.5 mph - N/A   Clear
5:16 AM -2.2 °F - -7.6 °F 78% 30.31 in 10.0 mi Calm Calm - N/A   Clear
5:36 AM -2.2 °F - -2.2 °F 100% 30.30 in 10.0 mi Calm Calm - N/A   Clear
5:56 AM -7.6 °F - -14.8 °F 71% 30.31 in 10.0 mi Calm Calm - N/A   Clear
6:16 AM -9.4 °F -18.6 °F -11.2 °F 92% 30.31 in 10.0 mi SSE 3.5 mph - N/A   Clear
6:36 AM -5.8 °F -14.5 °F -9.4 °F 84% 30.30 in 10.0 mi SE 3.5 mph - N/A   Clear
6:56 AM -7.6 °F - -18.4 °F 59% 30.29 in 10.0 mi Calm Calm - N/A   Clear
7:16 AM -0.4 °F -8.3 °F -0.4 °F 100% 30.29 in 10.0 mi NE 3.5 mph - N/A   Clear
7:36 AM -5.8 °F - -14.8 °F 65% 30.28 in 10.0 mi Calm Calm - N/A   Clear
7:56 AM -0.4 °F -12.0 °F -0.4 °F 100% 30.28 in 10.0 mi NNE 5.8 mph - N/A   Clear
8:16 AM -2.2 °F - -5.8 °F 85% 30.28 in 10.0 mi Calm Calm - N/A   Clear
8:36 AM -7.6 °F - -11.2 °F 84% 30.29 in 10.0 mi Calm Calm - N/A   Clear
8:56 AM -11.2 °F - -11.2 °F 100% 30.28 in 10.0 mi Calm Calm - N/A   Clear
9:16 AM -5.8 °F -21.2 °F -11.2 °F 77% 30.27 in 10.0 mi North 8.1 mph - N/A   Clear
9:36 AM -2.2 °F -14.2 °F -2.2 °F 100% 30.27 in 10.0 mi NE 5.8 mph - N/A   Clear
9:56 AM -13.0 °F - -25.6 °F 53% 30.28 in 10.0 mi Calm Calm - N/A   Clear
10:16 AM -9.4 °F - -16.6 °F 71% 30.27 in 10.0 mi Calm Calm - N/A   Clear
10:36 AM -11.2 °F - -13.0 °F 92% 30.27 in 10.0 mi Calm Calm - N/A   Clear
10:56 AM -5.8 °F -16.7 °F -7.6 °F 92% 30.26 in 10.0 mi North 4.6 mph - N/A   Clear
11:16 AM -7.6 °F -18.8 °F -9.4 °F 92% 30.25 in 8.0 mi North 4.6 mph - N/A   Clear
11:36 AM -4.0 °F -14.6 °F -7.6 °F 85% 30.25 in 10.0 mi North 4.6 mph - N/A   Clear
11:56 AM -9.4 °F -20.9 °F -13.0 °F 84% 30.25 in 10.0 mi SSE 4.6 mph - N/A   Clear
12:16 PM -11.2 °F - -20.2 °F 64% 30.25 in 10.0 mi Calm Calm - N/A   Clear
12:36 PM -11.2 °F -23.0 °F -14.8 °F 84% 30.24 in 5.0 mi ESE 4.6 mph - N/A   Clear
12:56 PM -11.2 °F - -14.8 °F 84% 30.23 in 10.0 mi Calm Calm - N/A   Clear
1:16 PM -9.4 °F -18.6 °F -14.8 °F 77% 30.22 in 10.0 mi East 3.5 mph - N/A   Clear
1:36 PM -9.4 °F - -13.0 °F 84% 30.21 in 9.0 mi Calm Calm - N/A   Clear
1:56 PM -7.6 °F - -11.2 °F 84% 30.20 in 10.0 mi Calm Calm - N/A   Clear
2:16 PM -9.4 °F - -14.8 °F 77% 30.20 in 8.0 mi Calm Calm - N/A   Clear
2:36 PM -5.8 °F - -9.4 °F 84% 30.20 in 10.0 mi Calm Calm - N/A   Clear
2:56 PM -7.6 °F - -9.4 °F 92% 30.18 in 10.0 mi Calm Calm - N/A   Clear
3:16 PM -5.8 °F -18.4 °F -14.8 °F 65% 30.17 in 10.0 mi North 5.8 mph - N/A   Clear
3:36 PM -0.4 °F -10.4 °F -0.4 °F 100% 30.15 in 10.0 mi NNW 4.6 mph - N/A   Clear
3:56 PM -2.2 °F - -7.6 °F 78% 30.14 in 10.0 mi Calm Calm - N/A   Clear
4:16 PM -4.0 °F - -5.8 °F 92% 30.12 in 10.0 mi Calm Calm - N/A   Clear
4:36 PM -0.4 °F -10.4 °F -2.2 °F 92% 30.11 in 7.0 mi NNE 4.6 mph - N/A   Clear
4:56 PM 1.4 °F -11.3 °F -2.2 °F 85% 30.10 in 10.0 mi North 6.9 mph - N/A   Clear
5:16 PM 1.4 °F -9.9 °F -0.4 °F 92% 30.09 in 10.0 mi North 5.8 mph - N/A   Clear
5:36 PM 1.4 °F -9.9 °F -2.2 °F 85% 30.09 in 10.0 mi North 5.8 mph - N/A   Clear
5:56 PM -0.4 °F -13.4 °F -2.2 °F 92% 30.08 in 10.0 mi NNW 6.9 mph - N/A   Clear
6:16 PM 1.4 °F -11.3 °F -0.4 °F 92% 30.08 in 10.0 mi NNW 6.9 mph - N/A   Clear
6:36 PM 1.4 °F -12.5 °F -2.2 °F 85% 30.06 in 10.0 mi NNW 8.1 mph - N/A   Clear
6:56 PM 3.2 °F -13.1 °F -0.4 °F 85% 30.05 in 10.0 mi NNE 11.5 mph 24.2 mph N/A   Clear
7:16 PM 5.0 °F -9.1 °F 1.4 °F 85% 30.05 in 10.0 mi NNE 9.2 mph 31.1 mph N/A   Clear
7:36 PM 5.0 °F -10.0 °F 1.4 °F 85% 30.04 in 10.0 mi North 10.4 mph - N/A   Clear
7:56 PM 3.2 °F -13.1 °F 1.4 °F 92% 30.03 in 10.0 mi North 11.5 mph - N/A   Clear
8:16 PM 3.2 °F -12.2 °F 1.4 °F 92% 30.03 in 10.0 mi North 10.4 mph - N/A   Clear
8:36 PM 3.2 °F -10.3 °F -0.4 °F 85% 30.02 in 10.0 mi NNE 8.1 mph - N/A   Clear
8:56 PM 3.2 °F -12.2 °F 1.4 °F 92% 30.01 in 10.0 mi North 10.4 mph - N/A   Clear
9:16 PM 3.2 °F -12.2 °F -0.4 °F 85% 30.01 in 10.0 mi North 10.4 mph - N/A   Clear
9:36 PM 5.0 °F -12.3 °F -0.4 °F 78% 30.01 in 10.0 mi NNE 13.8 mph - N/A   Clear
9:56 PM 6.8 °F -7.8 °F 1.4 °F 79% 30.01 in 10.0 mi North 10.4 mph 25.3 mph N/A   Clear
10:16 PM 6.8 °F -8.6 °F 1.4 °F 79% 30.01 in 10.0 mi North 11.5 mph - N/A   Clear
10:36 PM 6.8 °F -8.6 °F 1.4 °F 79% 30.01 in 10.0 mi North 11.5 mph - N/A   Clear
10:56 PM 6.8 °F -5.9 °F 1.4 °F 79% 30.02 in 10.0 mi North 8.1 mph - N/A   Clear
11:16 PM 6.8 °F -4.8 °F 1.4 °F 79% 30.02 in 10.0 mi NNW 6.9 mph - N/A   Clear
11:36 PM 6.8 °F -5.9 °F -0.4 °F 72% 30.01 in 10.0 mi NNW 8.1 mph - N/A   Clear
11:56 PM 5.0 °F -10.0 °F -0.4 °F 78% 30.01 in 10.0 mi NNW 10.4 mph - N/A   Clear